,,PA_Meas_PMT16A,,PR_Meas_QMR101_102,,RH_Meas_QMH101,,SR_Meas_QMS101,,TA_Meas_QMH101,,GenWind,,GenWind,
time,status,PA,status,PR,status,RH,status,SR,status,TA,status,DirAvg,status,SpdAvg,
2009-11-12, 00:00:04,VALID,915.997,VALID,0,VALID,96.0779,VALID,0,VALID,20.5773,VALID,176,VALID,0.330859,
2009-11-12, 00:01:04,VALID,915.99,VALID,0,VALID,95.8568,VALID,0,VALID,20.5968,VALID,176,VALID,0.916797,
2009-11-12, 00:02:04,VALID,915.986,VALID,0,VALID,95.6891,VALID,0,VALID,20.6163,VALID,175,VALID,0.958594,
2009-11-12, 00:03:04,VALID,915.992,VALID,0,VALID,95.5748,VALID,0,VALID,20.6163,VALID,156,VALID,0.41875,
2009-11-12, 00:04:04,VALID,915.963,VALID,0,VALID,95.529,VALID,0,VALID,20.6358,VALID,156,VALID,1.01602,
2009-11-12, 00:05:04,VALID,915.993,VALID,0,VALID,95.5671,VALID,0,VALID,20.6163,VALID,155,VALID,0.763281,
2009-11-12, 00:06:04,VALID,915.991,VALID,0,VALID,95.6434,VALID,0,VALID,20.5968,VALID,137,VALID,0.960547,
2009-11-12, 00:07:04,VALID,915.987,VALID,0,VALID,95.7806,VALID,0,VALID,20.5968,VALID,136,VALID,1.09492,
2009-11-12, 00:08:04,VALID,915.977,VALID,0,VALID,95.8263,VALID,0,VALID,20.5773,VALID,136,VALID,0.916797,
2009-11-12, 00:09:04,VALID,915.941,VALID,0,VALID,95.8873,VALID,0,VALID,20.5578,VALID,137,VALID,0.899609,
2009-11-12, 00:10:04,VALID,915.925,VALID,0,VALID,95.9559,VALID,0,VALID,20.5383,VALID,136,VALID,0.846875,
2009-11-12, 00:11:04,VALID,915.943,VALID,0,VALID,95.9712,VALID,0,VALID,20.5172,VALID,136,VALID,0.626562,
2009-11-12, 00:12:04,VALID,915.949,VALID,0,VALID,95.9102,VALID,0,VALID,20.5383,VALID,136,VALID,0.902734,
2009-11-12, 00:13:04,VALID,915.903,VALID,0,VALID,95.8645,VALID,0.107441,VALID,20.5383,VALID,137,VALID,0.563281,
2009-11-12, 00:14:04,VALID,915.909,VALID,0,VALID,95.8645,VALID,0,VALID,20.5383,VALID,136,VALID,0.373828,
2009-11-12, 00:15:04,VALID,915.904,VALID,0,VALID,95.7882,VALID,0,VALID,20.5383,VALID,137,VALID,0.563281,
2009-11-12, 00:16:04,VALID,915.876,VALID,0,VALID,95.6967,VALID,0,VALID,20.5578,VALID,136,VALID,0.395312,
2009-11-12, 00:17:04,VALID,915.894,VALID,0,VALID,95.6586,VALID,0,VALID,20.5383,VALID,137,VALID,0.478906,
2009-11-12, 00:18:04,VALID,915.878,VALID,0,VALID,95.6053,VALID,0,VALID,20.5383,VALID,136,VALID,0.408203,
2009-11-12, 00:19:04,VALID,915.87,VALID,0,VALID,95.5519,VALID,0,VALID,20.5383,VALID,136,VALID,0.529297,
2009-11-12, 00:20:04,VALID,915.827,VALID,0,VALID,95.468,VALID,0,VALID,20.5773,VALID,136,VALID,0.592578,
2009-11-12, 00:21:04,VALID,915.824,VALID,0,VALID,95.3689,VALID,0,VALID,20.6163,VALID,136,VALID,0,
2009-11-12, 00:22:04,VALID,915.801,VALID,0,VALID,95.1936,VALID,0,VALID,20.6358,VALID,136,VALID,0.325,
2009-11-12, 00:23:04,VALID,915.793,VALID,0,VALID,95.1021,VALID,0,VALID,20.6553,VALID,136,VALID,0.340234,
2009-11-12, 00:24:04,VALID,915.752,VALID,0,VALID,94.9496,VALID,0,VALID,20.6748,VALID,136,VALID,0.479297,
2009-11-12, 00:25:04,VALID,915.756,VALID,0,VALID,94.7972,VALID,0,VALID,20.6748,VALID,136,VALID,0.235156,
2009-11-12, 00:26:04,VALID,915.708,VALID,0,VALID,94.6295,VALID,0,VALID,20.7138,VALID,137,VALID,0.346094,
2009-11-12, 00:27:04,VALID,915.702,VALID,0,VALID,94.3398,VALID,0,VALID,20.6928,VALID,137,VALID,0.561328,
2009-11-12, 00:28:04,VALID,915.68,VALID,0,VALID,94.2864,VALID,0,VALID,20.7123,VALID,136,VALID,0.203125,
2009-11-12, 00:29:04,VALID,915.634,VALID,0,VALID,94.3017,VALID,0,VALID,20.7333,VALID,137,VALID,0,
2009-11-12, 00:30:04,VALID,915.628,VALID,0,VALID,94.1568,VALID,0,VALID,20.7138,VALID,136,VALID,0.26875,
2009-11-12, 00:31:04,VALID,915.578,VALID,0,VALID,94.0501,VALID,0,VALID,20.7138,VALID,136,VALID,0.507031,
2009-11-12, 00:32:04,VALID,915.546,VALID,0,VALID,93.9891,VALID,0,VALID,20.7333,VALID,136,VALID,0.312891,
2009-11-12, 00:33:04,VALID,915.519,VALID,0,VALID,93.951,VALID,0,VALID,20.7723,VALID,137,VALID,0,
2009-11-12, 00:34:04,VALID,915.484,VALID,0,VALID,93.9052,VALID,0,VALID,20.7723,VALID,136,VALID,0.00546875,
2009-11-12, 00:35:04,VALID,915.496,VALID,0,VALID,93.8747,VALID,0,VALID,20.7723,VALID,136,VALID,0.238672,
2009-11-12, 00:36:04,VALID,915.478,VALID,0,VALID,94.0882,VALID,0,VALID,20.7723,VALID,136,VALID,0,
2009-11-12, 00:37:04,VALID,915.492,VALID,0,VALID,94.073,VALID,0,VALID,20.7528,VALID,137,VALID,0.00078125,
2009-11-12, 00:38:04,VALID,915.477,VALID,0,VALID,94.2026,VALID,0,VALID,20.7528,VALID,136,VALID,0,
2009-11-12, 00:39:04,VALID,915.462,VALID,0,VALID,94.0958,VALID,0.107441,VALID,20.7123,VALID,136,VALID,0,
2009-11-12, 00:40:04,VALID,915.47,VALID,0,VALID,94.2712,VALID,0,VALID,20.6928,VALID,137,VALID,0,
2009-11-12, 00:41:04,VALID,915.466,VALID,0,VALID,94.2483,VALID,0,VALID,20.6748,VALID,136,VALID,0,
2009-11-12, 00:42:04,VALID,915.457,VALID,0,VALID,94.4694,VALID,0.107441,VALID,20.6748,VALID,136,VALID,0,
2009-11-12, 00:43:04,VALID,915.459,VALID,0,VALID,94.5761,VALID,0,VALID,20.6748,VALID,137,VALID,0,
2009-11-12, 00:44:04,VALID,915.446,VALID,0,VALID,94.6142,VALID,0,VALID,20.6553,VALID,136,VALID,0,
2009-11-12, 00:45:04,VALID,915.473,VALID,0,VALID,94.8353,VALID,0,VALID,20.6553,VALID,136,VALID,0,
2009-11-12, 00:46:04,VALID,915.465,VALID,0,VALID,94.7819,VALID,0,VALID,20.6358,VALID,136,VALID,0,
2009-11-12, 00:47:04,VALID,915.478,VALID,0,VALID,94.8505,VALID,0,VALID,20.6163,VALID,137,VALID,0,
2009-11-12, 00:48:04,VALID,915.467,VALID,0,VALID,94.9649,VALID,0,VALID,20.5952,VALID,137,VALID,0,
2009-11-12, 00:49:04,VALID,915.461,VALID,0,VALID,95.064,VALID,0,VALID,20.5968,VALID,136,VALID,0,
2009-11-12, 00:50:04,VALID,915.5,VALID,0,VALID,95.0564,VALID,0,VALID,20.5773,VALID,136,VALID,0,
2009-11-12, 00:51:04,VALID,915.474,VALID,0,VALID,95.1479,VALID,0,VALID,20.5773,VALID,137,VALID,0,
2009-11-12, 00:52:04,VALID,915.496,VALID,0,VALID,95.1631,VALID,0,VALID,20.5757,VALID,136,VALID,0,
2009-11-12, 00:53:04,VALID,915.498,VALID,0,VALID,95.064,VALID,0,VALID,20.5984,VALID,136,VALID,0,
2009-11-12, 00:54:04,VALID,915.512,VALID,0,VALID,94.9573,VALID,0,VALID,20.5383,VALID,136,VALID,0.0820313,
2009-11-12, 00:55:04,VALID,915.526,VALID,0,VALID,95.0106,VALID,0,VALID,20.5383,VALID,137,VALID,0.387109,
2009-11-12, 00:56:04,VALID,915.515,VALID,0,VALID,95.1326,VALID,0,VALID,20.5383,VALID,136,VALID,0.315234,
2009-11-12, 00:57:04,VALID,915.475,VALID,0,VALID,95.0488,VALID,0,VALID,20.5383,VALID,137,VALID,0.172266,
2009-11-12, 00:58:04,VALID,915.49,VALID,0,VALID,94.9801,VALID,0,VALID,20.5188,VALID,137,VALID,0.290234,
2009-11-12, 00:59:04,VALID,915.484,VALID,0,VALID,94.9801,VALID,0,VALID,20.5188,VALID,136,VALID,0.342578,
2009-11-12, 01:00:04,VALID,915.513,VALID,0,VALID,95.0183,VALID,0,VALID,20.5188,VALID,136,VALID,0.398047,
2009-11-12, 01:01:04,VALID,915.501,VALID,0,VALID,95.0564,VALID,0,VALID,20.5188,VALID,136,VALID,0.301562,
2009-11-12, 01:02:04,VALID,915.495,VALID,0,VALID,95.0945,VALID,0,VALID,20.5188,VALID,136,VALID,0.330078,
2009-11-12, 01:03:04,VALID,915.529,VALID,0,VALID,95.0335,VALID,0,VALID,20.4798,VALID,136,VALID,0.431641,
2009-11-12, 01:04:04,VALID,915.506,VALID,0,VALID,95.0716,VALID,0,VALID,20.4618,VALID,136,VALID,0.353516,
2009-11-12, 01:05:04,VALID,915.494,VALID,0,VALID,95.2088,VALID,0,VALID,20.4018,VALID,136,VALID,0.427734,
2009-11-12, 01:06:04,VALID,915.504,VALID,0,VALID,95.3537,VALID,0,VALID,20.3838,VALID,137,VALID,0.4875,
2009-11-12, 01:07:04,VALID,915.485,VALID,0,VALID,95.5062,VALID,0,VALID,20.3433,VALID,136,VALID,0.433984,
2009-11-12, 01:08:04,VALID,915.521,VALID,0,VALID,95.6586,VALID,0,VALID,20.3238,VALID,136,VALID,0.473828,
2009-11-12, 01:09:04,VALID,915.501,VALID,0,VALID,95.7425,VALID,0,VALID,20.3238,VALID,137,VALID,0.380469,
2009-11-12, 01:10:04,VALID,915.517,VALID,0,VALID,95.7654,VALID,0,VALID,20.3043,VALID,136,VALID,0.467187,
2009-11-12, 01:11:04,VALID,915.519,VALID,0,VALID,95.8187,VALID,0,VALID,20.3043,VALID,136,VALID,0.48125,
2009-11-12, 01:12:04,VALID,915.526,VALID,0,VALID,95.8873,VALID,0,VALID,20.3253,VALID,137,VALID,0.576953,
2009-11-12, 01:13:04,VALID,915.526,VALID,0,VALID,95.9102,VALID,0,VALID,20.3058,VALID,136,VALID,0.446875,
2009-11-12, 01:14:04,VALID,915.506,VALID,0,VALID,95.8568,VALID,0,VALID,20.2653,VALID,136,VALID,0.605469,
2009-11-12, 01:15:04,VALID,915.532,VALID,0,VALID,95.9102,VALID,0,VALID,20.2863,VALID,136,VALID,0.632031,
2009-11-12, 01:16:04,VALID,915.52,VALID,0,VALID,95.9941,VALID,0,VALID,20.2458,VALID,136,VALID,0.433203,
2009-11-12, 01:17:04,VALID,915.518,VALID,0,VALID,96.0322,VALID,0,VALID,20.2668,VALID,136,VALID,0.414063,
2009-11-12, 01:18:04,VALID,915.514,VALID,0,VALID,96.1313,VALID,0,VALID,20.2653,VALID,137,VALID,0.344531,
2009-11-12, 01:19:04,VALID,915.47,VALID,0,VALID,96.1846,VALID,0,VALID,20.2458,VALID,137,VALID,0,
2009-11-12, 01:20:04,VALID,915.47,VALID,0,VALID,96.2533,VALID,0,VALID,20.2653,VALID,137,VALID,0,
2009-11-12, 01:21:04,VALID,915.441,VALID,0,VALID,96.2456,VALID,0,VALID,20.2863,VALID,136,VALID,0,
2009-11-12, 01:22:04,VALID,915.453,VALID,0,VALID,96.2151,VALID,0,VALID,20.2653,VALID,137,VALID,0,
2009-11-12, 01:23:04,VALID,915.431,VALID,0,VALID,96.2228,VALID,0,VALID,20.2653,VALID,136,VALID,0.269531,
2009-11-12, 01:24:04,VALID,915.447,VALID,0,VALID,96.1541,VALID,0,VALID,20.2653,VALID,136,VALID,0.413672,
2009-11-12, 01:25:04,VALID,915.422,VALID,0,VALID,96.1008,VALID,0,VALID,20.2653,VALID,137,VALID,0.440625,
2009-11-12, 01:26:04,VALID,915.402,VALID,0,VALID,96.0245,VALID,0,VALID,20.2668,VALID,136,VALID,0.260938,
2009-11-12, 01:27:04,VALID,915.411,VALID,0,VALID,96.0779,VALID,0,VALID,20.2263,VALID,137,VALID,0.26875,
2009-11-12, 01:28:04,VALID,915.414,VALID,0,VALID,96.0245,VALID,0,VALID,20.2278,VALID,136,VALID,0.232812,
2009-11-12, 01:29:04,VALID,915.398,VALID,0,VALID,96.0932,VALID,0,VALID,20.2068,VALID,136,VALID,0,
2009-11-12, 01:30:04,VALID,915.407,VALID,0,VALID,96.2075,VALID,0,VALID,20.2068,VALID,137,VALID,0,
2009-11-12, 01:31:04,VALID,915.398,VALID,0,VALID,96.2685,VALID,0,VALID,20.2278,VALID,137,VALID,0,
2009-11-12, 01:32:04,VALID,915.409,VALID,0,VALID,96.2761,VALID,0,VALID,20.1857,VALID,136,VALID,0,
2009-11-12, 01:33:04,VALID,915.402,VALID,0,VALID,96.299,VALID,0,VALID,20.2068,VALID,136,VALID,0,
2009-11-12, 01:34:04,VALID,915.41,VALID,0,VALID,96.3752,VALID,0,VALID,20.2068,VALID,136,VALID,0.473437,
2009-11-12, 01:35:04,VALID,915.429,VALID,0,VALID,96.3219,VALID,0,VALID,20.2278,VALID,136,VALID,0.389453,
2009-11-12, 01:36:04,VALID,915.409,VALID,0,VALID,96.3524,VALID,0,VALID,20.2068,VALID,137,VALID,0.401172,
2009-11-12, 01:37:04,VALID,915.409,VALID,0,VALID,96.4286,VALID,0,VALID,20.2068,VALID,136,VALID,0.276953,
2009-11-12, 01:38:04,VALID,915.418,VALID,0,VALID,96.3905,VALID,0,VALID,20.2068,VALID,136,VALID,0.189453,
2009-11-12, 01:39:04,VALID,915.387,VALID,0,VALID,96.4057,VALID,0,VALID,20.2263,VALID,137,VALID,0.130859,
2009-11-12, 01:40:04,VALID,915.381,VALID,0,VALID,96.4133,VALID,0,VALID,20.2473,VALID,137,VALID,0.285547,
2009-11-12, 01:41:04,VALID,915.381,VALID,0,VALID,96.4819,VALID,0,VALID,20.2458,VALID,137,VALID,0,
2009-11-12, 01:42:04,VALID,915.387,VALID,0,VALID,96.5201,VALID,0,VALID,20.2848,VALID,136,VALID,0,
2009-11-12, 01:43:04,VALID,915.345,VALID,0,VALID,96.4667,VALID,0,VALID,20.3043,VALID,137,VALID,0,
2009-11-12, 01:44:04,VALID,915.368,VALID,0,VALID,96.3981,VALID,0,VALID,20.3433,VALID,136,VALID,0,
2009-11-12, 01:45:04,VALID,915.349,VALID,0,VALID,96.3066,VALID,0,VALID,20.3643,VALID,136,VALID,0,
2009-11-12, 01:46:04,VALID,915.321,VALID,0,VALID,96.2761,VALID,0,VALID,20.4018,VALID,136,VALID,0,
2009-11-12, 01:47:04,VALID,915.333,VALID,0,VALID,96.2151,VALID,0,VALID,20.3823,VALID,136,VALID,0.0207031,
2009-11-12, 01:48:04,VALID,915.306,VALID,0,VALID,95.9026,VALID,0,VALID,20.3823,VALID,136,VALID,0.291016,
2009-11-12, 01:49:04,VALID,915.278,VALID,0,VALID,95.7577,VALID,0,VALID,20.3433,VALID,137,VALID,0.356641,
2009-11-12, 01:50:04,VALID,915.254,VALID,0,VALID,95.834,VALID,0,VALID,20.3238,VALID,136,VALID,0.356641,
2009-11-12, 01:51:04,VALID,915.232,VALID,0,VALID,95.9636,VALID,0,VALID,20.3448,VALID,137,VALID,0.281641,
2009-11-12, 01:52:04,VALID,915.202,VALID,0,VALID,96.0932,VALID,0,VALID,20.3238,VALID,136,VALID,0.246875,
2009-11-12, 01:53:04,VALID,915.19,VALID,0,VALID,96.0855,VALID,0,VALID,20.3238,VALID,137,VALID,0.403125,
2009-11-12, 01:54:04,VALID,915.154,VALID,0,VALID,96.0779,VALID,0,VALID,20.3238,VALID,136,VALID,0.494531,
2009-11-12, 01:55:04,VALID,915.174,VALID,0,VALID,95.9788,VALID,0,VALID,20.3464,VALID,137,VALID,0.519141,
2009-11-12, 01:56:04,VALID,915.117,VALID,0,VALID,96.1084,VALID,0,VALID,20.3058,VALID,136,VALID,0.460938,
2009-11-12, 01:57:04,VALID,915.102,VALID,0,VALID,96.0855,VALID,0,VALID,20.3253,VALID,136,VALID,0.503125,
2009-11-12, 01:58:04,VALID,915.048,VALID,0,VALID,96.1389,VALID,0,VALID,20.3043,VALID,136,VALID,0.463672,
2009-11-12, 01:59:04,VALID,915.043,VALID,0,VALID,96.0703,VALID,0,VALID,20.3058,VALID,136,VALID,0.375391,
2009-11-12, 02:00:04,VALID,915.028,VALID,0,VALID,95.9636,VALID,0,VALID,20.2863,VALID,136,VALID,0.253516,
2009-11-12, 02:01:04,VALID,915.027,VALID,0,VALID,95.9026,VALID,0,VALID,20.2668,VALID,136,VALID,0.182031,
2009-11-12, 02:02:04,VALID,914.986,VALID,0,VALID,95.9483,VALID,0,VALID,20.2668,VALID,137,VALID,0,
2009-11-12, 02:03:04,VALID,914.985,VALID,0,VALID,96.0322,VALID,0,VALID,20.2473,VALID,137,VALID,0.369531,
2009-11-12, 02:04:04,VALID,914.968,VALID,0,VALID,96.1313,VALID,0,VALID,20.2263,VALID,136,VALID,0.344922,
2009-11-12, 02:05:04,VALID,914.966,VALID,0,VALID,96.1541,VALID,0,VALID,20.2278,VALID,136,VALID,0.423828,
2009-11-12, 02:06:04,VALID,914.948,VALID,0,VALID,96.1923,VALID,0,VALID,20.2083,VALID,137,VALID,0.451953,
2009-11-12, 02:07:04,VALID,914.933,VALID,0,VALID,96.2075,VALID,0,VALID,20.2068,VALID,137,VALID,0.507031,
2009-11-12, 02:08:04,VALID,914.908,VALID,0,VALID,96.2837,VALID,0,VALID,20.2083,VALID,136,VALID,0.436328,
2009-11-12, 02:09:04,VALID,914.91,VALID,0,VALID,96.2837,VALID,0,VALID,20.1873,VALID,136,VALID,0.439063,
2009-11-12, 02:10:04,VALID,914.896,VALID,0,VALID,96.3676,VALID,0,VALID,20.2068,VALID,137,VALID,0.382422,
2009-11-12, 02:11:04,VALID,914.899,VALID,0,VALID,96.3981,VALID,0,VALID,20.2278,VALID,137,VALID,0.564453,
2009-11-12, 02:12:04,VALID,914.94,VALID,0,VALID,96.4819,VALID,0,VALID,20.2068,VALID,136,VALID,0.505078,
2009-11-12, 02:13:04,VALID,914.925,VALID,0,VALID,96.4896,VALID,0,VALID,20.2473,VALID,137,VALID,0.593359,
2009-11-12, 02:14:04,VALID,914.923,VALID,0,VALID,96.5429,VALID,0,VALID,20.2263,VALID,137,VALID,0.301172,
2009-11-12, 02:15:04,VALID,914.934,VALID,0,VALID,96.5963,VALID,0,VALID,20.2458,VALID,137,VALID,0.170703,
2009-11-12, 02:16:04,VALID,914.948,VALID,0,VALID,96.6115,VALID,0,VALID,20.2668,VALID,137,VALID,0.0351563,
2009-11-12, 02:17:04,VALID,914.934,VALID,0,VALID,96.6649,VALID,0,VALID,20.2863,VALID,136,VALID,0.398438,
2009-11-12, 02:18:04,VALID,914.917,VALID,0,VALID,96.5429,VALID,0,VALID,20.2458,VALID,136,VALID,0.352344,
2009-11-12, 02:19:04,VALID,914.902,VALID,0,VALID,96.6115,VALID,0,VALID,20.2458,VALID,136,VALID,0.467578,
2009-11-12, 02:20:04,VALID,914.907,VALID,0,VALID,96.5734,VALID,0,VALID,20.2473,VALID,136,VALID,0.409375,
2009-11-12, 02:21:04,VALID,914.919,VALID,0,VALID,96.5811,VALID,0,VALID,20.2068,VALID,136,VALID,0.226172,
2009-11-12, 02:22:04,VALID,914.888,VALID,0,VALID,96.642,VALID,0,VALID,20.2263,VALID,137,VALID,0.00664063,
2009-11-12, 02:23:04,VALID,914.9,VALID,0,VALID,96.5811,VALID,0,VALID,20.2263,VALID,137,VALID,0,
2009-11-12, 02:24:04,VALID,914.884,VALID,0,VALID,96.6268,VALID,0,VALID,20.2278,VALID,136,VALID,0,
2009-11-12, 02:25:04,VALID,914.858,VALID,0,VALID,96.6268,VALID,0,VALID,20.2473,VALID,137,VALID,0,
2009-11-12, 02:26:04,VALID,914.889,VALID,0,VALID,96.5277,VALID,0,VALID,20.2489,VALID,136,VALID,0,
2009-11-12, 02:27:04,VALID,914.865,VALID,0,VALID,96.5277,VALID,0,VALID,20.2278,VALID,136,VALID,0,
2009-11-12, 02:28:04,VALID,914.853,VALID,0,VALID,96.4743,VALID,0,VALID,20.2083,VALID,136,VALID,0.202734,
2009-11-12, 02:29:04,VALID,914.862,VALID,0,VALID,96.4057,VALID,0,VALID,20.2098,VALID,137,VALID,0.298438,
2009-11-12, 02:30:04,VALID,914.851,VALID,0,VALID,96.3829,VALID,0,VALID,20.1888,VALID,137,VALID,0.36875,
2009-11-12, 02:31:04,VALID,914.838,VALID,0,VALID,96.421,VALID,0,VALID,20.2293,VALID,137,VALID,0.482031,
2009-11-12, 02:32:04,VALID,914.875,VALID,0,VALID,96.4591,VALID,0,VALID,20.2489,VALID,136,VALID,0.492578,
2009-11-12, 02:33:04,VALID,914.852,VALID,0,VALID,96.3371,VALID,0,VALID,20.2278,VALID,136,VALID,0.415234,
2009-11-12, 02:34:04,VALID,914.858,VALID,0,VALID,96.2685,VALID,0,VALID,20.2083,VALID,137,VALID,0.551172,
2009-11-12, 02:35:04,VALID,914.874,VALID,0,VALID,96.0245,VALID,0,VALID,20.2098,VALID,136,VALID,0.660156,
2009-11-12, 02:36:04,VALID,914.859,VALID,0,VALID,95.7501,VALID,0,VALID,20.2293,VALID,136,VALID,0.708594,
2009-11-12, 02:37:04,VALID,914.859,VALID,0,VALID,95.2165,VALID,0,VALID,20.2684,VALID,136,VALID,0.794531,
2009-11-12, 02:38:04,VALID,914.847,VALID,0,VALID,94.8505,VALID,0,VALID,20.3058,VALID,91,VALID,0.847266,
2009-11-12, 02:39:04,VALID,914.845,VALID,0,VALID,94.6371,VALID,0.107441,VALID,20.3628,VALID,58,VALID,0.686719,
2009-11-12, 02:40:04,VALID,914.872,VALID,0,VALID,94.3093,VALID,0.107441,VALID,20.3628,VALID,58,VALID,0.704297,
2009-11-12, 02:41:04,VALID,914.852,VALID,0,VALID,94.4465,VALID,0.107441,VALID,20.4002,VALID,58,VALID,0.363281,
2009-11-12, 02:42:04,VALID,914.872,VALID,0,VALID,94.4313,VALID,0.107441,VALID,20.4213,VALID,58,VALID,0.401172,
2009-11-12, 02:43:04,VALID,914.878,VALID,0,VALID,94.4084,VALID,0.107441,VALID,20.4408,VALID,58,VALID,0.307422,
2009-11-12, 02:44:04,VALID,914.898,VALID,0,VALID,94.2559,VALID,0.107441,VALID,20.4213,VALID,58,VALID,0.634375,
2009-11-12, 02:45:04,VALID,914.9,VALID,0,VALID,94.5227,VALID,0,VALID,20.4603,VALID,58,VALID,0.477344,
2009-11-12, 02:46:04,VALID,914.882,VALID,0,VALID,94.3626,VALID,0.107441,VALID,20.4392,VALID,58,VALID,0.397266,
2009-11-12, 02:47:04,VALID,914.89,VALID,0,VALID,94.0958,VALID,0.107441,VALID,20.4408,VALID,58,VALID,0.620313,
2009-11-12, 02:48:04,VALID,914.863,VALID,0,VALID,94.1949,VALID,0.107441,VALID,20.4213,VALID,58,VALID,0.293359,
2009-11-12, 02:49:04,VALID,914.862,VALID,0,VALID,94.2559,VALID,0.107441,VALID,20.4197,VALID,58,VALID,0.146094,
2009-11-12, 02:50:04,VALID,914.859,VALID,0,VALID,94.294,VALID,0.107441,VALID,20.4197,VALID,58,VALID,0,
2009-11-12, 02:51:04,VALID,914.857,VALID,0,VALID,94.2483,VALID,0.107441,VALID,20.4002,VALID,58,VALID,0,
2009-11-12, 02:52:04,VALID,914.86,VALID,0,VALID,94.3931,VALID,0.107441,VALID,20.4213,VALID,58,VALID,0,
2009-11-12, 02:53:04,VALID,914.837,VALID,0,VALID,94.3855,VALID,0.107441,VALID,20.4408,VALID,58,VALID,0,
2009-11-12, 02:54:04,VALID,914.861,VALID,0,VALID,94.2635,VALID,0.107441,VALID,20.4197,VALID,58,VALID,0,
2009-11-12, 02:55:04,VALID,914.836,VALID,0,VALID,94.2178,VALID,0.107441,VALID,20.4002,VALID,58,VALID,0,
2009-11-12, 02:56:04,VALID,914.833,VALID,0,VALID,94.1721,VALID,0.107441,VALID,20.4423,VALID,58,VALID,0,
2009-11-12, 02:57:04,VALID,914.816,VALID,0,VALID,94.4617,VALID,0.107441,VALID,20.4392,VALID,58,VALID,0.00195313,
2009-11-12, 02:58:04,VALID,914.795,VALID,0,VALID,94.6295,VALID,0.107441,VALID,20.4798,VALID,58,VALID,0.280078,
2009-11-12, 02:59:04,VALID,914.767,VALID,0,VALID,94.3474,VALID,0.107441,VALID,20.4798,VALID,58,VALID,0.340625,
2009-11-12, 03:00:04,VALID,914.779,VALID,0,VALID,94.3169,VALID,0.107441,VALID,20.4603,VALID,58,VALID,0.346484,
2009-11-12, 03:01:04,VALID,914.722,VALID,0,VALID,94.5532,VALID,0.107441,VALID,20.4587,VALID,58,VALID,0.476172,
2009-11-12, 03:02:04,VALID,914.743,VALID,0,VALID,94.3626,VALID,0.107441,VALID,20.4603,VALID,58,VALID,0.806641,
2009-11-12, 03:03:04,VALID,914.722,VALID,0,VALID,94.4846,VALID,0,VALID,20.4197,VALID,58,VALID,0.6375,
2009-11-12, 03:04:04,VALID,914.735,VALID,0,VALID,94.7896,VALID,0.107441,VALID,20.4213,VALID,58,VALID,0.702344,
2009-11-12, 03:05:04,VALID,914.698,VALID,0,VALID,94.9115,VALID,0.107441,VALID,20.3628,VALID,57,VALID,0.940234,
2009-11-12, 03:06:04,VALID,914.685,VALID,0,VALID,95.0869,VALID,0.107441,VALID,20.3433,VALID,47,VALID,0.903125,
2009-11-12, 03:07:04,VALID,914.681,VALID,0,VALID,95.2851,VALID,0,VALID,20.3238,VALID,47,VALID,0.8625,
2009-11-12, 03:08:04,VALID,914.685,VALID,0,VALID,95.4985,VALID,0.107441,VALID,20.2832,VALID,47,VALID,0.696094,
2009-11-12, 03:09:04,VALID,914.687,VALID,0,VALID,95.6129,VALID,0.107441,VALID,20.2442,VALID,47,VALID,0.764453,
2009-11-12, 03:10:04,VALID,914.705,VALID,0,VALID,95.834,VALID,0.107441,VALID,20.2848,VALID,47,VALID,0.607422,
2009-11-12, 03:11:04,VALID,914.694,VALID,0,VALID,95.9788,VALID,0,VALID,20.2653,VALID,46,VALID,0.510938,
2009-11-12, 03:12:04,VALID,914.709,VALID,0,VALID,95.9788,VALID,0.107441,VALID,20.2442,VALID,46,VALID,0.746875,
2009-11-12, 03:13:04,VALID,914.682,VALID,0,VALID,96.1084,VALID,0.107441,VALID,20.2653,VALID,46,VALID,0.727344,
2009-11-12, 03:14:04,VALID,914.69,VALID,0,VALID,96.1541,VALID,0,VALID,20.2653,VALID,46,VALID,0.7625,
2009-11-12, 03:15:04,VALID,914.698,VALID,0,VALID,96.1389,VALID,0,VALID,20.2458,VALID,46,VALID,0.621484,
2009-11-12, 03:16:04,VALID,914.704,VALID,0,VALID,96.116,VALID,0.107441,VALID,20.2442,VALID,46,VALID,0.785937,
2009-11-12, 03:17:04,VALID,914.709,VALID,0,VALID,96.0703,VALID,0,VALID,20.2458,VALID,45,VALID,1.0543,
2009-11-12, 03:18:04,VALID,914.689,VALID,0,VALID,96.1465,VALID,0.107441,VALID,20.2263,VALID,45,VALID,1.35039,
2009-11-12, 03:19:04,VALID,914.677,VALID,0,VALID,96.2304,VALID,0.107441,VALID,20.2458,VALID,45,VALID,1.05703,
2009-11-12, 03:20:04,VALID,914.673,VALID,0,VALID,96.1999,VALID,0.107441,VALID,20.2068,VALID,45,VALID,1.01016,
2009-11-12, 03:21:04,VALID,914.687,VALID,0,VALID,96.2609,VALID,0.107441,VALID,20.2068,VALID,45,VALID,1.46211,
2009-11-12, 03:22:04,VALID,914.704,VALID,0,VALID,96.2228,VALID,0.107441,VALID,20.1873,VALID,45,VALID,1.37344,
2009-11-12, 03:23:04,VALID,914.71,VALID,0,VALID,96.3371,VALID,0.107441,VALID,20.1873,VALID,71,VALID,1.2,
2009-11-12, 03:24:04,VALID,914.69,VALID,0,VALID,96.3219,VALID,0.107441,VALID,20.1873,VALID,71,VALID,1.36094,
2009-11-12, 03:25:04,VALID,914.701,VALID,0,VALID,96.4133,VALID,0.107441,VALID,20.1873,VALID,71,VALID,1.23555,
2009-11-12, 03:26:04,VALID,914.72,VALID,0,VALID,96.5506,VALID,0,VALID,20.2068,VALID,71,VALID,0.957812,
2009-11-12, 03:27:04,VALID,914.706,VALID,0,VALID,96.4972,VALID,0.107441,VALID,20.1873,VALID,16,VALID,1.58516,
2009-11-12, 03:28:04,VALID,914.732,VALID,0,VALID,96.5048,VALID,0,VALID,20.1873,VALID,10,VALID,1.45313,
2009-11-12, 03:29:04,VALID,914.748,VALID,0.2,VALID,96.5734,VALID,0.107441,VALID,20.1873,VALID,53,VALID,1.43945,
2009-11-12, 03:30:04,VALID,914.76,VALID,0.2,VALID,96.4515,VALID,0.107441,VALID,20.1873,VALID,44,VALID,2.10977,
2009-11-12, 03:31:04,VALID,914.79,VALID,0.6,VALID,96.5277,VALID,0.107441,VALID,20.1678,VALID,34,VALID,1.05586,
2009-11-12, 03:32:04,VALID,914.789,VALID,0.6,VALID,96.5506,VALID,0.107441,VALID,20.1678,VALID,34,VALID,1.03828,
2009-11-12, 03:33:04,VALID,914.792,VALID,0.4,VALID,96.6039,VALID,0,VALID,20.1483,VALID,34,VALID,0.86875,
2009-11-12, 03:34:04,VALID,914.797,VALID,0.2,VALID,96.6954,VALID,0.107441,VALID,20.1288,VALID,34,VALID,0.55,
2009-11-12, 03:35:04,VALID,914.769,VALID,0.4,VALID,96.764,VALID,0.107441,VALID,20.1288,VALID,34,VALID,0.601563,
2009-11-12, 03:36:04,VALID,914.796,VALID,0.2,VALID,96.8174,VALID,0.107441,VALID,20.0882,VALID,34,VALID,1.14688,
2009-11-12, 03:37:04,VALID,914.81,VALID,0,VALID,96.8631,VALID,0.107441,VALID,20.0882,VALID,34,VALID,1.20977,
2009-11-12, 03:38:04,VALID,914.824,VALID,0.2,VALID,96.9012,VALID,0.107441,VALID,20.0688,VALID,34,VALID,1.10117,
2009-11-12, 03:39:04,VALID,914.836,VALID,0.4,VALID,96.886,VALID,0,VALID,20.0703,VALID,33,VALID,1.54336,
2009-11-12, 03:40:04,VALID,914.855,VALID,0.4,VALID,96.9317,VALID,0,VALID,20.0703,VALID,28,VALID,0.952734,
2009-11-12, 03:41:04,VALID,914.825,VALID,0.6,VALID,96.947,VALID,0,VALID,20.0703,VALID,37,VALID,1.23633,
2009-11-12, 03:42:04,VALID,914.849,VALID,0.8,VALID,96.9851,VALID,0,VALID,20.0508,VALID,62,VALID,1.59297,
2009-11-12, 03:43:04,VALID,914.825,VALID,0.8,VALID,96.9851,VALID,0,VALID,20.0313,VALID,61,VALID,0.944531,
2009-11-12, 03:44:04,VALID,914.821,VALID,0.6,VALID,97.0232,VALID,0,VALID,20.0313,VALID,60,VALID,0.500781,